GW3763 Weather Reports


time (UTC)temp
C
wind
direction
speed
KPH
gust
KPH
rain 1hr
cm
rain 24hr
cm
rain mn
cm
humidity
%
barometer
mb
20260504100314 -17 204 1.6 3.2 0.00 0.00 0.00 1008.5
20260504081708 -17 208 1.6 3.2 0.00 0.00 0.00 1008.8
20260504081204 -17 213 3.2 6.4 0.00 0.00 0.00 1008.8
20260504080700 -17 215 3.2 6.4 0.00 0.00 0.00 1008.8
20260504080157 -17 211 1.6 6.4 0.00 0.00 0.00 1008.9
20260504070125 -17 211 1.6 9.7 0.00 0.00 0.00 1008.5
20260504050514 -17 212 3.2 6.4 0.00 0.00 0.00 1008.9
20260504050010 -17 211 1.6 3.2 0.00 0.00 0.00 1008.8
20260504045507 -17 201 3.2 6.4 0.00 0.00 0.00 1008.9
20260504045002 -17 211 1.6 4.8 0.00 0.00 0.00 1008.8
20260504044500 -17 210 0.0 3.2 0.00 0.00 0.00 1008.7
20260504043957 -17 209 1.6 6.4 0.00 0.00 0.00 1009.0
20260504043454 -17 204 3.2 11.3 0.00 0.00 0.00 1008.8
20260504042952 -17 211 1.6 1.6 0.00 0.00 0.00 1008.9
20260504042448 -17 230 3.2 6.4 0.00 0.00 0.00 1008.8
20260504041945 -17 201 1.6 9.7 0.00 0.00 0.00 1008.7
20260504041441 -17 214 0.0 3.2 0.00 0.00 0.00 1008.8
20260504040937 -17 213 4.8 4.8 0.00 0.00 0.00 1008.7
20260504040435 -17 203 3.2 4.8 0.00 0.00 0.00 1008.7
20260504035931 -17 209 0.0 3.2 0.00 0.00 0.00 1008.9
20260504035428 -17 208 0.0 3.2 0.00 0.00 0.00 1008.8
20260504034925 -17 211 0.0 3.2 0.00 0.00 0.00 1008.7
20260504034423 -17 207 1.6 9.7 0.00 0.00 0.00 1008.8
20260504033919 -17 212 1.6 3.2 0.00 0.00 0.00 1008.7
20260504033417 -17 205 4.8 4.8 0.00 0.00 0.00 1008.6
20260504032914 -17 207 3.2 3.2 0.00 0.00 0.00 1008.7
20260504032411 -17 208 1.6 3.2 0.00 0.00 0.00 1008.6
20260504031907 -17 207 1.6 4.8 0.00 0.00 0.00 1008.7
20260504031405 -17 209 3.2 3.2 0.00 0.00 0.00 1008.6
20260504030901 -17 210 0.0 4.8 0.00 0.00 0.00 1008.6
20260504030358 -17 211 3.2 3.2 0.00 0.00 0.00 1008.6
20260504025854 -17 205 6.4 11.3 0.00 0.00 0.00 1008.5
20260504025351 -17 209 3.2 4.8 0.00 0.00 0.00 1008.8
20260504024848 -17 209 1.6 3.2 0.00 0.00 0.00 1008.7
20260504024344 -17 211 0.0 1.6 0.00 0.00 0.00 1008.7
20260504023841 -17 224 3.2 4.8 0.00 0.00 0.00 1008.8
20260504023338 -17 211 1.6 3.2 0.00 0.00 0.00 1008.8
20260504022834 -17 209 1.6 3.2 0.00 0.00 0.00 1008.8
20260504022331 -17 209 1.6 3.2 0.00 0.00 0.00 1008.6
20260504021827 -17 209 0.0 3.2 0.00 0.00 0.00 1008.9
20260504021325 -17 207 1.6 3.2 0.00 0.00 0.00 1008.6
20260504020822 -17 211 1.6 1.6 0.00 0.00 0.00 1008.8
20260504020318 -17 204 3.2 4.8 0.00 0.00 0.00 1008.8
20260504015814 -17 210 1.6 1.6 0.00 0.00 0.00 1008.9
20260504015311 -17 207 1.6 3.2 0.00 0.00 0.00 1008.7
20260504014808 -17 208 3.2 4.8 0.00 0.00 0.00 1008.6
20260504014303 -17 209 1.6 3.2 0.00 0.00 0.00 1008.4
20260504013801 -17 209 1.6 3.2 0.00 0.00 0.00 1008.6
20260504013259 -17 209 1.6 3.2 0.00 0.00 0.00 1008.5
20260504012754 -17 211 3.2 3.2 0.00 0.00 0.00 1008.6
20260504012253 -17 207 1.6 3.2 0.00 0.00 0.00 1008.4
20260504011749 -17 224 3.2 3.2 0.00 0.00 0.00 1008.3
20260504011246 -17 202 4.8 4.8 0.00 0.00 0.00 1008.4
20260504010742 -17 207 3.2 3.2 0.00 0.00 0.00 1008.5
20260504010238 -17 207 1.6 3.2 0.00 0.00 0.00 1008.6
20260504005735 -17 224 1.6 3.2 0.00 0.00 0.00 1008.4
20260504005232 -17 207 3.2 3.2 0.00 0.00 0.00 1008.3
20260504004729 -17 209 1.6 3.2 0.00 0.00 0.00 1008.4
20260504004226 -17 204 0.0 3.2 0.00 0.00 0.00 1008.2
20260504003723 -17 207 1.6 3.2 0.00 0.00 0.00 1008.2
20260504003220 -17 207 3.2 3.2 0.00 0.00 0.00 1008.2
20260504002717 -17 203 4.8 4.8 0.00 0.00 0.00 1008.1
20260504002214 -17 204 3.2 4.8 0.00 0.00 0.00 1008.1
20260504001712 -17 210 3.2 3.2 0.00 0.00 0.00 1007.8
20260504001208 -17 210 1.6 3.2 0.00 0.00 0.00 1008.0
20260504000705 -17 210 3.2 3.2 0.00 0.00 0.00 1008.0
20260504000204 -17 210 3.2 3.2 0.00 0.00 0.00 1007.9
20260503235700 -17 211 3.2 3.2 0.00 0.00 0.00 1007.9
20260503235157 -17 207 1.6 3.2 0.00 0.00 0.00 1007.8
20260503234655 -17 210 1.6 1.6 0.00 0.00 0.00 1007.8
20260503234153 -17 216 6.4 6.4 0.00 0.00 0.00 1007.9
20260503233649 -17 220 3.2 9.7 0.00 0.00 0.00 1007.9
20260503233145 -17 217 3.2 9.7 0.00 0.00 0.00 1007.8
20260503232642 -17 214 3.2 4.8 0.00 0.00 0.00 1007.6
20260503232139 -17 214 0.0 4.8 0.00 0.00 0.00 1007.7
20260503231638 -17 224 8.0 11.3 0.00 0.00 0.00 1007.8
20260503231133 -17 232 11.3 17.7 0.00 0.00 0.00 1007.8
20260503230630 -17 209 6.4 12.9 0.00 0.00 0.00 1007.8
20260503230128 -17 224 4.8 9.7 0.00 0.00 0.00 1007.7
20260503225625 -17 237 8.0 11.3 0.00 0.00 0.00 1007.7
20260503225124 -17 223 3.2 11.3 0.00 0.00 0.00 1007.7
20260503224622 -17 264 9.7 17.7 0.00 0.00 0.00 1007.5
20260503224120 -17 238 6.4 9.7 0.00 0.00 0.00 1007.7
20260503223618 -17 226 3.2 11.3 0.00 0.00 0.00 1007.6
20260503223113 -17 239 8.0 11.3 0.00 0.00 0.00 1007.7
20260503222612 -17 218 6.4 11.3 0.00 0.00 0.00 1007.8
20260503222109 -17 276 9.7 17.7 0.00 0.00 0.00 1007.8
20260503221607 -17 218 3.2 12.9 0.00 0.00 0.00 1007.8
20260503221104 -17 230 9.7 14.5 0.00 0.00 0.00 1007.8
20260503220600 -17 228 3.2 14.5 0.00 0.00 0.00 1007.6
20260503220057 -17 226 4.8 9.7 0.00 0.00 0.00 1008.0
20260503215554 -17 260 8.0 11.3 0.00 0.00 0.00 1007.9
20260503215051 -17 242 6.4 11.3 0.00 0.00 0.00 1007.7
20260503214550 -17 235 6.4 11.3 0.00 0.00 0.00 1007.9
20260503214046 -17 214 4.8 12.9 0.00 0.00 0.00 1008.1
20260503213544 -17 277 9.7 12.9 0.00 0.00 0.00 1007.8
20260503213041 -17 251 11.3 20.9 0.00 0.00 0.00 1007.6
20260503212538 -17 275 6.4 11.3 0.00 0.00 0.00 1007.9
20260503212036 -17 273 14.5 17.7 0.00 0.00 0.00 1007.9
20260503211532 -17 265 14.5 17.7 0.00 0.00 0.00 1007.7
20260503211028 -17 240 9.7 29.0 0.00 0.00 0.00 1007.8
20260503210525 -17 279 6.4 12.9 0.00 0.00 0.00 1007.7
20260503210021 -17 313 11.3 20.9 0.00 0.00 0.00 1007.8
20260503205517 -17 241 8.0 11.3 0.00 0.00 0.00 1007.7
20260503205014 -17 293 14.5 20.9 0.00 0.00 0.00 1007.7
20260503204511 -17 235 12.9 20.9 0.00 0.00 0.00 1007.6
20260503204008 -17 217 12.9 25.7 0.00 0.00 0.00 1007.8
20260503203505 -17 213 6.4 20.9 0.00 0.00 0.00 1007.7
20260503203002 -17 241 11.3 14.5 0.00 0.00 0.00 1007.8
20260503202500 -17 203 14.5 24.1 0.00 0.00 0.00 1007.9
20260503201958 -17 269 12.9 16.1 0.00 0.00 0.00 1007.6
20260503201455 -17 254 6.4 22.5 0.00 0.00 0.00 1007.8
20260503200952 -17 290 20.9 29.0 0.00 0.00 0.00 1007.6
20260503200449 -17 295 19.3 24.1 0.00 0.00 0.00 1007.7
20260503195945 -17 321 9.7 16.1 0.00 0.00 0.00 1007.8
20260503195443 -17 251 12.9 16.1 0.00 0.00 0.00 1007.7
20260503194939 -17 272 14.5 22.5 0.00 0.00 0.00 1007.7
20260503194436 -17 207 8.0 20.9 0.00 0.00 0.00 1007.7
20260503193931 -17 236 9.7 20.9 0.00 0.00 0.00 1007.8
20260503193427 -17 278 11.3 25.7 0.00 0.00 0.00 1007.9
20260503192923 -17 285 9.7 24.1 0.00 0.00 0.00 1008.0
20260503192420 -17 290 8.0 20.9 0.00 0.00 0.00 1008.2
20260503191911 -17 267 9.7 17.7 0.00 0.00 0.00 1008.1
20260503191408 -17 225 12.9 25.7 0.00 0.00 0.00 1008.2
20260503190904 -17 305 14.5 25.7 0.00 0.00 0.00 1008.2
20260503190402 -17 309 17.7 25.7 0.00 0.00 0.00 1008.1
20260503185858 -17 246 9.7 25.7 0.00 0.00 0.00 1008.4
20260503185355 -17 296 16.1 27.4 0.00 0.00 0.00 1008.3
20260503184854 -17 225 9.7 16.1 0.00 0.00 0.00 1008.1
20260503184350 -17 256 8.0 22.5 0.00 0.00 0.00 1008.5
20260503183846 -17 294 14.5 17.7 0.00 0.00 0.00 1008.5
20260503183344 -17 335 12.9 14.5 0.00 0.00 0.00 1008.7
20260503182841 -17 245 14.5 22.5 0.00 0.00 0.00 1008.8
20260503182340 -17 271 12.9 25.7 0.00 0.00 0.00 1008.7
20260503181837 -17 313 20.9 24.1 0.00 0.00 0.00 1008.6
20260503181334 -17 227 14.5 29.0 0.00 0.00 0.00 1008.8
20260503180830 -17 319 14.5 25.7 0.00 0.00 0.00 1009.0
20260503180328 -17 292 14.5 29.0 0.00 0.00 0.00 1008.9
20260503175824 -17 326 11.3 12.9 0.00 0.00 0.00 1008.9
20260503175323 -17 343 16.1 24.1 0.00 0.00 0.00 1009.0
20260503174818 -17 252 14.5 22.5 0.00 0.00 0.00 1009.0
20260503174316 -17 223 16.1 20.9 0.00 0.00 0.00 1009.2
20260503173811 -17 252 11.3 20.9 0.00 0.00 0.00 1009.1
20260503173308 -17 258 12.9 22.5 0.00 0.00 0.00 1009.1
20260503172805 -17 258 11.3 14.5 0.00 0.00 0.00 1009.2
20260503172305 -17 251 8.0 16.1 0.00 0.00 0.00 1009.4
20260503171758 -17 280 11.3 17.7 0.00 0.00 0.00 1009.5
20260503171255 -17 220 8.0 20.9 0.00 0.00 0.00 1009.6
20260503170752 -17 315 12.9 22.5 0.00 0.00 0.00 1009.5
20260503170249 -17 295 16.1 22.5 0.00 0.00 0.00 1009.7
20260503160211 -17 342 8.0 17.7 0.00 0.00 0.00 1009.9
20260503150641 -17 241 14.5 25.7 0.00 0.00 0.00 1010.2
20260503150137 -17 243 9.7 22.5 0.00 0.00 0.00 1010.3
20260503131031 -17 326 14.5 16.1 0.00 0.00 0.00 1010.4
20260503130528 -17 239 6.4 12.9 0.00 0.00 0.00 1010.4
20260503110419 -17 220 3.2 4.8 0.00 0.00 0.00 1009.9